Weather History for Pittsfield, MA

Change the Weather History Date:

Saturday, June 7, 2014

  Actual Average Record
Temperature  
Mean Temperature 65 °F 61 °F  
Max Temperature 78 °F 72 °F 90 °F (2008)
Min Temperature 51 °F 51 °F 33 °F (1958)
Degree Days  
Heating Degree Days 0 5  
Month to date heating degree days 17 39  
Since 1 June heating degree days 17 39  
Since 1 July heating degree days 7694 7399  
Cooling Degree Days 0 1  
Month to date cooling degree days 5 7  
Year to date cooling degree days 11 20  
Since 1 June cooling degree days 5 7  
Growing Degree Days 14 (Base 50)    
Moisture  
Dew Point 52 °F    
Average Humidity 67    
Maximum Humidity 93    
Minimum Humidity 40    
Precipitation  
Precipitation 0.00 in 0.18 in 1.12 in (1931)
Month to date precipitation T 1.26  
Year to date precipitation 14.00 18.30  
Sea Level Pressure  
Sea Level Pressure 29.91 in    
Wind  
Wind Speed 6 mph (WNW)    
Max Wind Speed 15 mph    
Max Gust Speed 22 mph    
Visibility 10 miles    
Events Rain    
T = Trace of Precipitation, MM = Missing Value Source: NWS Daily Summary

Daily Weather History Graph

Daily Weather History Graph

Search for Another Location

Airport:

Trip Planner

Search our weather history database for the weather conditions in past years. The results will help you decide how hot, cold, wet, or windy it might be!

Date:

Astronomy

Jun. 07, 2014 Rise Set
Actual Time 5:16 AM EDT 8:27 PM EDT
Civil Twilight 4:42 AM EDT 9:02 PM EDT
Nautical Twilight 3:57 AM EDT 9:46 PM EDT
Astronomical Twilight 3:04 AM EDT 10:40 PM EDT
Moon 2:36 PM EDT (6/7) 1:43 AM EDT (6/7)
Length of Visible Light 16h 20m
Length of Day
15h 11m
Waxing Gibbous, 67% of the Moon is Illuminated
Jun 7
Waxing Gibbous
Jun 13
Full
Jun 19
Last Quarter
Jun 27
New
Jul 5
First Quarter

Hourly Weather History & Observations

Time (EDT) Temp. Dew Point Humidity Pressure Visibility Wind Dir Wind Speed Gust Speed Precip Events Conditions
12:54 AM 55.9 °F 48.9 °F 77% 29.91 in 10.0 mi Calm Calm - N/A   Clear
1:54 AM 55.9 °F 48.9 °F 77% 29.91 in 10.0 mi NW 6.9 mph - N/A   Clear
2:54 AM 54.0 °F 48.0 °F 80% 29.91 in 10.0 mi Calm Calm - N/A   Clear
3:54 AM 54.0 °F 48.9 °F 83% 29.91 in 10.0 mi WNW 8.1 mph - N/A   Clear
4:54 AM 53.1 °F 48.9 °F 86% 29.92 in 10.0 mi WSW 8.1 mph - N/A   Clear
5:54 AM 52.0 °F 48.9 °F 89% 29.93 in 10.0 mi West 5.8 mph - N/A   Clear
6:54 AM 57.0 °F 51.1 °F 81% 29.94 in 10.0 mi West 3.5 mph - 0.00 in   Clear
9:54 AM 68.0 °F 53.1 °F 59% 29.94 in 10.0 mi NW 9.2 mph - N/A   Clear
10:54 AM 71.1 °F 52.0 °F 51% 29.94 in 10.0 mi NNW 10.4 mph - N/A   Scattered Clouds
11:54 AM 73.9 °F 52.0 °F 46% 29.94 in 10.0 mi NW 9.2 mph - N/A   Mostly Cloudy
12:54 PM 75.0 °F 53.1 °F 46% 29.92 in 10.0 mi WNW 9.2 mph - N/A   Scattered Clouds
1:54 PM 73.9 °F 52.0 °F 46% 29.93 in 10.0 mi West 11.5 mph - N/A   Scattered Clouds
2:54 PM 77.0 °F 52.0 °F 42% 29.91 in 10.0 mi North 10.4 mph - N/A   Mostly Cloudy
3:54 PM 75.9 °F 52.0 °F 43% 29.90 in 10.0 mi North 9.2 mph - N/A   Partly Cloudy
4:54 PM 75.0 °F 53.1 °F 46% 29.89 in 10.0 mi Variable 6.9 mph - N/A   Partly Cloudy
5:54 PM 77.0 °F 52.0 °F 42% 29.87 in 10.0 mi Variable 3.5 mph - N/A   Clear
6:54 PM 75.9 °F 51.1 °F 42% 29.86 in 10.0 mi North 3.5 mph - N/A   Clear
7:54 PM 72.0 °F 54.0 °F 53% 29.87 in 10.0 mi WNW 4.6 mph - N/A   Clear
8:54 PM 66.9 °F 55.9 °F 68% 29.88 in 10.0 mi SW 5.8 mph - 0.00 in Rain Light Rain
9:54 PM 62.1 °F 55.0 °F 78% 29.92 in 10.0 mi Calm Calm - 0.00 in   Clear
10:54 PM 59.0 °F 55.0 °F 87% 29.93 in 10.0 mi Calm Calm - 0.00 in   Mostly Cloudy
11:54 PM 57.0 °F 55.0 °F 93% 29.92 in 10.0 mi Calm Calm - N/A   Partly Cloudy